Location: Napier
(39.4830°S, 176.9170°E)
Time: 02:39:06
(UTC+12:00)

MOS 1-B - Pass Details

Date: 15 August 2020
Orbit: 905 x 914 km, 99.4° (Epoch: 19 September)

Event Time Altitude Azimuth Distance (km) Brightness Sun altitude
Rises 17:57:23 0° 166° (SSE) 3,575 7.2 -5.1°
Reaches altitude 10° 17:59:49 10° 165° (SSE) 2,628 6.5 -5.6°
Maximum altitude 18:05:43 85° 76° (ENE) 929 4.4 -6.7°
Drops below altitude 10° 18:11:32 10° 346° (NNW) 2,601 7.1 -7.8°
Sets 18:13:56 0° 345° (NNW) 3,536 7.8 -8.2°
